This is the latest recevied weather packets stored in our database for station/object KB9ZI. If no packets are shown the sender has not sent any weather packets the latest 10 day(s).
| Time | Temp. | Humidity | Pressure | Rain* | Wind** | Luminosity | Snow |
|---|---|---|---|---|---|---|---|
| 1777650606 | 8.89° C | 47% | 1018.7 hPa | 0 mm | - | - | - |
| 1777650485 | 9.44° C | 50% | 1018.8 hPa | 0 mm | - | - | - |
| 1777650364 | 8.89° C | 47% | 1018.8 hPa | 0 mm | - | - | - |
| 1777650246 | 8.33° C | 49% | 1018.8 hPa | 0 mm | - | - | - |
| 1777650155 | 8.33° C | 49% | 1018.8 hPa | 0 mm | - | - | - |
| 1777649974 | 8.33° C | 48% | 1018.9 hPa | 0 mm | - | - | - |
| 1777649922 | 8.33° C | 47% | 1018.7 hPa | 0 mm | - | - | - |
| 1777649737 | 8.89° C | 52% | 1018.8 hPa | 0 mm | - | - | - |
| 1777649595 | 8.89° C | 49% | 1018.8 hPa | 0 mm | - | - | - |
| 1777649481 | 8.89° C | 49% | 1018.8 hPa | 0 mm | - | - | - |
| 1777649355 | 8.89° C | 51% | 1018.9 hPa | 0 mm | - | - | - |
| 1777649340 | 8.89° C | 52% | 1018.8 hPa | 0 mm | - | - | - |
| 1777649320 | 8.89° C | 51% | 1018.8 hPa | 0 mm | - | - | - |
| 1777648995 | 8.33° C | 51% | 1018.7 hPa | 0 mm | - | - | - |
| 1777648880 | 8.33° C | 50% | 1018.7 hPa | 0 mm | - | - | - |
| 1777648755 | 8.89° C | 50% | 1018.7 hPa | 0 mm | - | - | - |
| 1777648718 | 8.89° C | 50% | 1018.7 hPa | 0 mm | - | - | - |
| 1777648516 | 8.89° C | 51% | 1018.8 hPa | 0 mm | - | - | - |
| 1777648395 | 8.89° C | 51% | 1018.8 hPa | 0 mm | - | - | - |
| 1777648281 | 8.89° C | 50% | 1018.7 hPa | 0 mm | - | - | - |
| 1777648220 | 9.44° C | 51% | 1018.7 hPa | 0 mm | - | - | - |
| 1777648144 | 9.44° C | 50% | 1018.7 hPa | 0 mm | - | - | - |
| 1777648122 | 9.44° C | 52% | 1018.7 hPa | 0 mm | - | - | - |
| 1777647795 | 9.44° C | 50% | 1018.6 hPa | 0 mm | - | - | - |
| 1777647692 | 8.89° C | 49% | 1018.7 hPa | 0 mm | - | - | - |
* Rain latest hour (hover to see other rain measurements)
** Current wind speed in m/s (hover to see current wind gust speed)